STARLINK-36810

Last updated on Tue Mar 24 2026 00:02:05 GMT+0000 (Coordinated Universal Time)

1 67898U 26035V 26082.33010780 .00139134 00000+0 91729-3 0 9995 2 67898 97.2863 15.4395 0001945 93.9707 266.1780 15.75221440 5990
UTC large
Height (km)
Speed (km/s)
/
Latitude / Longitude
Inclination (degrees)
Orbital Period (minutes)
Azimuth
Elevation
Range (km)
Doppler Factor

Next 0 passes for location: London (51.5072 / 0.1276)

Sorry there are no passes over London.